[[{"header":{"parameterUnit":"m.s-1","parameterCategory":1,"la1":30.2992,"la2":30.254,"lo1":-89.0895,"lo2":-89.0443,"dy":0.0025,"dx":0.0025,"nx":19,"ny":19,"refTime":"2026-03-09T09:00:00:Z","depth":0,"parameterNumber":2,"parameterNumberName":"U-component_of_WINDS"},"data":[0,0,0,-1.3936,-1.3938,-1.4019,-1.4019,-1.4128,-1.4129,0,0,0,0,0,0,0,0,0,0,0,-1.3913,-1.3914,-1.3936,-1.3938,-1.4019,-1.4019,-1.4128,-1.4129,0,0,0,0,0,0,0,0,0,0,0,-1.3913,-1.3914,-1.3915,-1.3938,-1.4019,-1.4019,-1.4128,-1.4066,0,0,0,0,0,0,0,0,0,0,-1.3986,-1.3965,-1.3914,-1.3915,-1.3939,-1.4019,-1.4019,-1.4062,-1.4069,-1.4093,0,-1.4113,0,-1.4122,-1.4137,-1.4137,0,0,0,-1.3938,-1.3959,-1.398,-1.3915,-1.394,-1.4018,-1.3982,-1.4066,-1.4074,-1.4103,-1.4114,-1.4118,-1.4124,-1.4137,-1.4138,-1.427,-1.4271,0,0,-1.3934,-1.3929,-1.3975,-1.3985,-1.397,-1.398,-1.3985,-1.4071,-1.4084,-1.4114,-1.4121,-1.4126,-1.4138,-1.4139,-1.427,-1.4271,0,0,0,-1.3921,-1.3926,-1.3944,-1.3981,-1.3995,-1.3982,-1.3988,-1.408,-1.4087,-1.4122,-1.4127,-1.4139,-1.414,-1.4269,-1.427,-1.4294,0,0,0,-1.3918,-1.3918,-1.3942,-1.394,-1.3993,-1.4038,-1.3995,-1.4081,-1.4091,-1.4127,-1.4139,-1.4141,-1.4268,-1.427,-1.4292,-1.4307,0,0,0,-1.3908,-1.3917,-1.3929,-1.394,-1.3974,-1.4037,-1.4048,-1.4083,-1.4094,-1.4137,-1.4142,-1.4268,-1.4269,-1.429,-1.4304,-1.434,0,0,0,-1.3896,-1.395,-1.3929,-1.3992,-1.3973,-1.405,-1.4047,-1.4106,-1.4146,-1.4139,-1.4269,-1.427,-1.429,-1.4302,-1.4338,-1.4369,-1.4382,0,0,-1.3962,-1.3958,-1.3996,-1.3979,-1.4058,-1.4039,-1.4123,-1.4165,-1.4176,-1.4239,-1.4242,-1.4293,-1.4304,-1.434,-1.4454,-1.4464,0,0,0,-1.4015,-1.4042,-1.4064,-1.4101,-1.4133,-1.4163,-1.4193,-1.4209,-1.4263,-1.4206,-1.4316,-1.4323,-1.4344,-1.4359,-1.4368,-1.4387,-1.4277,-1.4277,-1.4277,-1.4102,-1.411,-1.4173,-1.4191,-1.4227,-1.4257,-1.4288,-1.4316,-1.4315,-1.4341,-1.4359,-1.4427,-1.4445,-1.4451,-1.4471,-1.4377,-1.4377,-1.4377,-1.4377,-1.4199,-1.4239,-1.4235,-1.4295,-1.4305,-1.4357,-1.4389,-1.4387,-1.4438,-1.4414,-1.4433,-1.4406,-1.4462,-1.448,-1.4379,-1.4379,-1.4379,-1.4379,-1.4378,-1.4256,-1.4276,-1.4294,-1.4348,-1.4389,-1.4407,-1.4456,-1.4464,-1.4472,-1.4491,-1.4512,-1.4512,-1.4512,-1.45,-1.4501,-1.4501,-1.4501,-1.4501,-1.4501,-1.4308,-1.4327,-1.4365,-1.4405,-1.4429,-1.4464,-1.4496,-1.4521,-1.4552,-1.4554,-1.4554,-1.4552,-1.4465,-1.4443,-1.4505,-1.4505,-1.4504,-1.4504,-1.4503,-1.4403,-1.4383,-1.4442,-1.4467,-1.4514,-1.4556,-1.4565,-1.4617,-1.464,-1.4664,-1.4658,-1.4592,-1.459,-1.4583,-1.4565,-1.4655,-1.4655,-1.4655,-1.4655,-1.4451,-1.445,-1.4513,-1.4552,-1.4592,-1.4606,-1.4676,-1.4703,-1.4727,-1.4742,-1.4731,-1.4708,-1.4701,-1.4702,-1.4693,-1.4676,-1.4793,-1.4793,-1.4793,-1.451,-1.4513,-1.4569,-1.4591,-1.4629,-1.4662,-1.4728,-1.4776,-1.48,-1.4799,-1.4755,-1.4749,-1.4712,-1.4699,-1.4695,-1.4681,-1.465,0,0]},{"header":{"parameterUnit":"m.s-1","parameterCategory":1,"la1":30.2992,"la2":30.254,"lo1":-89.0895,"lo2":-89.0443,"dy":0.0025,"dx":0.0025,"nx":19,"ny":19,"refTime":"2026-03-09T09:00:00:Z","depth":0,"parameterNumber":3,"parameterNumberName":"V-component_of_WINDS"},"data":[0,0,0,2.8981,2.8985,2.9178,2.9179,2.9403,2.9405,0,0,0,0,0,0,0,0,0,0,0,2.8907,2.8908,2.8981,2.8985,2.9178,2.9179,2.9403,2.9405,0,0,0,0,0,0,0,0,0,0,0,2.8906,2.8907,2.8908,2.8986,2.9178,2.9179,2.9402,2.9266,0,0,0,0,0,0,0,0,0,0,2.9082,2.8996,2.8907,2.8908,2.8987,2.9178,2.9179,2.926,2.9274,2.9305,0,2.9324,0,2.9368,2.9418,2.9419,0,0,0,2.8999,2.8983,2.9051,2.8909,2.8988,2.9177,2.9095,2.9268,2.9285,2.9324,2.9328,2.9337,2.9372,2.9419,2.942,2.9544,2.9544,0,0,2.8988,2.8933,2.9039,2.9061,2.9026,2.9089,2.9101,2.9278,2.928,2.9329,2.9343,2.9375,2.9421,2.9422,2.9545,2.9544,0,0,0,2.8948,2.8925,2.8989,2.9051,2.9087,2.9094,2.9108,2.9272,2.9298,2.9345,2.9378,2.9422,2.9424,2.9545,2.9545,2.9487,0,0,0,2.8943,2.8902,2.8983,2.8951,2.9083,2.9181,2.9097,2.9285,2.9307,2.9377,2.9422,2.9426,2.9545,2.9545,2.9489,2.9469,0,0,0,2.89,2.8897,2.8919,2.8948,2.9028,2.918,2.9216,2.9291,2.9326,2.9419,2.9427,2.9545,2.9545,2.949,2.9472,2.9486,0,0,0,2.884,2.8865,2.8917,2.8959,2.9026,2.9141,2.9215,2.9304,2.9377,2.9423,2.9545,2.9545,2.9491,2.9474,2.9488,2.9488,2.9483,0,0,2.8842,2.8864,2.8893,2.8944,2.9035,2.9116,2.9201,2.9321,2.9382,2.9488,2.9492,2.9488,2.9473,2.9487,2.9472,2.9467,0,0,0,2.8875,2.8895,2.8932,2.8996,2.9087,2.9165,2.9277,2.9322,2.9414,2.9424,2.9498,2.9491,2.9502,2.9505,2.9501,2.9514,2.9543,2.9543,2.9543,2.8799,2.8874,2.8928,2.9026,2.9088,2.9204,2.9263,2.9344,2.9403,2.9419,2.9451,2.9432,2.9434,2.9431,2.9444,2.9457,2.9457,2.9457,2.9456,2.881,2.8851,2.8927,2.9006,2.9086,2.9155,2.9269,2.9308,2.9386,2.9414,2.9428,2.9452,2.9423,2.9439,2.9453,2.9453,2.9454,2.9454,2.9455,2.8769,2.8802,2.8855,2.8957,2.9028,2.9129,2.9199,2.927,2.9338,2.9351,2.9394,2.9395,2.9406,2.9366,2.9366,2.9366,2.9366,2.9366,2.9366,2.8707,2.8768,2.8817,2.8915,2.8967,2.9045,2.9162,2.9217,2.9295,2.9342,2.9343,2.94,2.9406,2.9406,2.9365,2.9365,2.9365,2.9365,2.9365,2.8692,2.8706,2.8782,2.8833,2.8956,2.9023,2.9112,2.9217,2.9272,2.9305,2.9361,2.9353,2.9382,2.9385,2.9386,2.9343,2.9343,2.9343,2.9343,2.8658,2.8679,2.8773,2.885,2.8935,2.9024,2.9111,2.9203,2.9302,2.9342,2.9358,2.9365,2.9366,2.9395,2.9398,2.94,2.9361,2.9362,2.9362,2.8654,2.8686,2.8744,2.8837,2.8939,2.9025,2.911,2.92,2.9315,2.9364,2.9375,2.9374,2.9386,2.9386,2.9435,2.9439,2.9444,0,0]}]]